[[{"header":{"parameterUnit":"m.s-1","parameterCategory":1,"la1":30.2991,"la2":30.254,"lo1":-89.0895,"lo2":-89.0444,"dy":0.0017,"dx":0.0017,"nx":28,"ny":28,"refTime":"2025-07-05T03:00:00:Z","depth":0,"parameterNumber":2,"parameterNumberName":"U-component_of_WINDS"},"data":[0,0,0,0,0,0,0,0,0,0,0,0,0,0,0,0,0,0,0,0,0,0,0,0,0,0,0,0,0,0,0,0,0,0,0,0,0,0,0,0,0,0,0,0,0,0,0,0,0,0,0,0,0,0,0,0,0,0,-1.5942,-1.5941,0,-1.5866,-1.5865,-1.5864,-1.581,-1.581,-1.581,-1.5809,-1.5725,-1.5723,-1.5721,0,0,0,0,0,0,0,0,0,0,0,0,0,-1.6036,-1.6035,-1.5942,-1.5941,-1.594,-1.5866,-1.5865,-1.5864,-1.5811,-1.581,-1.581,-1.5809,-1.5725,-1.5723,-1.5721,0,0,0,0,0,0,0,0,0,0,0,0,0,-1.5981,-1.6034,-1.5943,-1.5905,-1.5901,-1.5867,-1.5865,-1.5864,-1.5811,-1.581,-1.5809,-1.5809,-1.5726,-1.5723,-1.5721,-1.5716,0,0,-1.5712,-1.5711,0,0,0,0,0,0,0,0,-1.5984,-1.5978,-1.5911,-1.5907,-1.5903,-1.5847,-1.5867,-1.5814,-1.5811,-1.5845,-1.5809,-1.5809,-1.5766,-1.5759,-1.5746,-1.5712,-1.5708,-1.5712,-1.571,-1.5709,-1.5708,0,0,0,0,0,0,0,-1.5988,-1.5981,-1.5912,-1.591,-1.5905,-1.589,-1.5882,-1.5857,-1.5809,-1.5842,-1.5838,-1.583,-1.5763,-1.5749,-1.5744,-1.5707,-1.5712,-1.5709,-1.5708,-1.5707,-1.5664,-1.5664,0,0,0,0,0,0,-1.5999,-1.5984,-1.5914,-1.591,-1.5943,-1.5889,-1.5879,-1.5866,-1.5809,-1.58,-1.583,-1.5827,-1.5754,-1.5747,-1.5741,-1.573,-1.5709,-1.5706,-1.5705,-1.5663,-1.5664,-1.5664,0,0,0,0,0,0,-1.6001,-1.5993,-1.5917,-1.5946,-1.5935,-1.5888,-1.5873,-1.5864,-1.5851,-1.5801,-1.5792,-1.5825,-1.5753,-1.5745,-1.5723,-1.5727,-1.5705,-1.5702,-1.5662,-1.5663,-1.5664,-1.5711,0,0,0,0,0,0,-1.6004,-1.5994,-1.5993,-1.5946,-1.5934,-1.5902,-1.5873,-1.5863,-1.5847,-1.5842,-1.5794,-1.5785,-1.5752,-1.5727,-1.572,-1.5723,-1.57,-1.5662,-1.5663,-1.5664,-1.5708,-1.5713,-1.5717,0,0,0,0,0,-1.6007,-1.6007,-1.5993,-1.5985,-1.5932,-1.5903,-1.5895,-1.586,-1.5847,-1.5845,-1.5813,-1.5786,-1.5728,-1.5725,-1.5717,-1.5719,-1.5661,-1.5663,-1.5664,-1.5706,-1.5712,-1.5717,0,0,0,0,0,0,-1.6053,-1.6001,-1.5984,-1.597,-1.5941,-1.5894,-1.5889,-1.5867,-1.584,-1.5836,-1.5791,-1.5781,-1.5763,-1.5739,-1.5736,-1.5711,-1.5691,-1.5691,-1.5727,-1.5732,-1.5736,-1.5741,-1.5698,0,0,0,0,0,-1.6062,-1.6045,-1.5999,-1.5991,-1.5978,-1.5937,-1.5922,-1.5898,-1.5866,-1.5853,-1.5819,-1.5788,-1.5762,-1.5746,-1.572,-1.5706,-1.5693,-1.5703,-1.5707,-1.5711,-1.571,-1.57,-1.5703,-1.5668,-1.5668,-1.5668,0,0,-1.6079,-1.6048,-1.604,-1.5999,-1.5974,-1.5956,-1.5926,-1.5908,-1.5893,-1.5849,-1.5826,-1.5801,-1.5763,-1.5745,-1.5735,-1.5724,-1.5717,-1.5712,-1.5715,-1.5712,-1.5701,-1.5705,-1.5708,-1.5669,-1.5669,-1.5669,0,0,-1.61,-1.6077,-1.6067,-1.6043,-1.6007,-1.598,-1.5978,-1.5934,-1.5916,-1.5894,-1.586,-1.5841,-1.5799,-1.5772,-1.5754,-1.5768,-1.5741,-1.576,-1.5781,-1.5772,-1.5774,-1.5776,-1.578,-1.5782,-1.576,-1.576,-1.576,0,-1.6125,-1.6098,-1.6064,-1.6048,-1.603,-1.5993,-1.5982,-1.596,-1.5916,-1.5904,-1.5894,-1.584,-1.5811,-1.5786,-1.579,-1.5776,-1.5771,-1.5764,-1.5777,-1.5779,-1.578,-1.5783,-1.5785,-1.5763,-1.5763,-1.5762,-1.5762,0,-1.613,-1.6112,-1.6108,-1.6069,-1.6052,-1.6038,-1.6,-1.5986,-1.5964,-1.5938,-1.5915,-1.588,-1.5846,-1.5838,-1.5815,-1.581,-1.5804,-1.5786,-1.5765,-1.5787,-1.5788,-1.5789,-1.5766,-1.5765,-1.5765,-1.5764,0,0,-1.6175,-1.612,-1.6119,-1.6101,-1.606,-1.6044,-1.6028,-1.5998,-1.5986,-1.5958,-1.5942,-1.5908,-1.5891,-1.587,-1.5844,-1.5836,-1.5848,-1.5818,-1.5817,-1.5824,-1.5839,-1.5851,-1.5853,-1.5832,-1.5832,-1.5832,-1.5841,0,-1.6189,-1.6161,-1.6131,-1.6113,-1.6095,-1.606,-1.6046,-1.6018,-1.5994,-1.5973,-1.5945,-1.5921,-1.5902,-1.5889,-1.588,-1.5849,-1.585,-1.5848,-1.5815,-1.5814,-1.5823,-1.5854,-1.5867,-1.5877,-1.5842,-1.5842,-1.5842,0,-1.62,-1.6176,-1.6157,-1.6118,-1.6109,-1.6098,-1.6067,-1.6049,-1.6017,-1.5999,-1.5977,-1.595,-1.593,-1.5914,-1.5885,-1.5885,-1.587,-1.5852,-1.5852,-1.5845,-1.5828,-1.5847,-1.588,-1.5881,-1.5843,-1.5843,-1.5843,0,-1.6233,-1.6196,-1.618,-1.6166,-1.612,-1.6113,-1.6093,-1.606,-1.6044,-1.6017,-1.6006,-1.5976,-1.5959,-1.5936,-1.5901,-1.5893,-1.5876,-1.5857,-1.5859,-1.586,-1.5854,-1.5855,-1.5884,-1.5849,-1.5849,-1.5849,-1.5849,0,-1.625,-1.624,-1.6194,-1.6184,-1.6171,-1.6136,-1.6123,-1.61,-1.6072,-1.6055,-1.6023,-1.6008,-1.5964,-1.5943,-1.5915,-1.5895,-1.5888,-1.5871,-1.5864,-1.5873,-1.5875,-1.5861,-1.5858,-1.5849,-1.5849,-1.5849,-1.5849,0,-1.6284,-1.6254,-1.6233,-1.6193,-1.6183,-1.6174,-1.6139,-1.6126,-1.6102,-1.6081,-1.6074,-1.6033,-1.6007,-1.5971,-1.5933,-1.5914,-1.5897,-1.5886,-1.5908,-1.5903,-1.5907,-1.5906,-1.5926,-1.5926,-1.5893,-1.5893,-1.5894,0,-1.6296,-1.6287,-1.6247,-1.6235,-1.6217,-1.6197,-1.6181,-1.6147,-1.6131,-1.6094,-1.6086,-1.6058,-1.6033,-1.5993,-1.5958,-1.5929,-1.5916,-1.5925,-1.5911,-1.5921,-1.5914,-1.5914,-1.5912,-1.5927,-1.5928,-1.5929,-1.5929,0,-1.632,-1.6306,-1.6285,-1.6259,-1.6242,-1.6219,-1.6195,-1.6186,-1.6146,-1.613,-1.6104,-1.6085,-1.6048,-1.602,-1.5986,-1.5963,-1.5939,-1.5934,-1.5933,-1.5941,-1.5954,-1.5945,-1.5915,-1.5933,-1.5933,-1.5932,-1.5932,-1.5932,-1.6341,-1.6332,-1.6302,-1.628,-1.6259,-1.6238,-1.6225,-1.6199,-1.6178,-1.6146,-1.6127,-1.6101,-1.6069,-1.6022,-1.6001,-1.5979,-1.5969,-1.5967,-1.5966,-1.5966,-1.5969,-1.596,-1.5973,-1.5973,-1.5973,-1.5972,-1.5972,0,-1.6362,-1.6342,-1.6322,-1.6291,-1.6273,-1.6256,-1.6228,-1.6214,-1.6193,-1.6166,-1.6144,-1.6114,-1.6087,-1.6051,-1.6021,-1.6011,-1.5999,-1.6004,-1.6003,-1.5998,-1.598,-1.5984,-1.6014,-1.6014,-1.6014,-1.6014,-1.6014,-1.6014,-1.637,-1.6354,-1.6336,-1.6309,-1.6288,-1.6265,-1.6251,-1.623,-1.6209,-1.6178,-1.6156,-1.6134,-1.6104,-1.6071,-1.6045,-1.6035,-1.6025,-1.6033,-1.602,-1.6003,-1.5999,-1.5996,-1.5999,-1.6032,-1.6032,-1.6039,-1.6039,-1.6039]},{"header":{"parameterUnit":"m.s-1","parameterCategory":1,"la1":30.2991,"la2":30.254,"lo1":-89.0895,"lo2":-89.0444,"dy":0.0017,"dx":0.0017,"nx":28,"ny":28,"refTime":"2025-07-05T03:00:00:Z","depth":0,"parameterNumber":3,"parameterNumberName":"V-component_of_WINDS"},"data":[0,0,0,0,0,0,0,0,0,0,0,0,0,0,0,0,0,0,0,0,0,0,0,0,0,0,0,0,0,0,0,0,0,0,0,0,0,0,0,0,0,0,0,0,0,0,0,0,0,0,0,0,0,0,0,0,0,0,-0.4898,-0.49,0,-0.5108,-0.511,-0.5113,-0.5228,-0.5228,-0.5228,-0.5229,-0.5444,-0.5449,-0.5455,0,0,0,0,0,0,0,0,0,0,0,0,0,-0.4596,-0.4601,-0.4898,-0.49,-0.4903,-0.5108,-0.5111,-0.5113,-0.5228,-0.5228,-0.5228,-0.5229,-0.5442,-0.5449,-0.5455,0,0,0,0,0,0,0,0,0,0,0,0,0,-0.4759,-0.4603,-0.4897,-0.4985,-0.4995,-0.5107,-0.5111,-0.5114,-0.5228,-0.5228,-0.5229,-0.5229,-0.544,-0.5448,-0.5456,-0.5498,0,0,-0.5481,-0.5485,0,0,0,0,0,0,0,0,-0.4749,-0.477,-0.4969,-0.4979,-0.499,-0.5142,-0.5083,-0.5243,-0.5228,-0.5139,-0.5229,-0.5229,-0.5343,-0.5359,-0.5398,-0.5508,-0.5517,-0.5482,-0.5487,-0.549,-0.5493,0,0,0,0,0,0,0,-0.4738,-0.4761,-0.4981,-0.4972,-0.4985,-0.5014,-0.5037,-0.5114,-0.5236,-0.5147,-0.5156,-0.5179,-0.5349,-0.539,-0.5404,-0.552,-0.5482,-0.5489,-0.5494,-0.5497,-0.5677,-0.5677,0,0,0,0,0,0,-0.4713,-0.4751,-0.4974,-0.4987,-0.4868,-0.5019,-0.5045,-0.5093,-0.5236,-0.5258,-0.5178,-0.5184,-0.5376,-0.5394,-0.5412,-0.5471,-0.549,-0.5498,-0.5503,-0.5677,-0.5677,-0.5676,0,0,0,0,0,0,-0.4706,-0.4731,-0.4966,-0.4872,-0.4904,-0.5023,-0.5076,-0.5097,-0.5138,-0.526,-0.5282,-0.5197,-0.5377,-0.54,-0.5476,-0.548,-0.5502,-0.5509,-0.5677,-0.5677,-0.5677,-0.5588,0,0,0,0,0,0,-0.4696,-0.4728,-0.4745,-0.4871,-0.4908,-0.5026,-0.5076,-0.5101,-0.5151,-0.516,-0.5283,-0.5304,-0.5379,-0.5463,-0.5484,-0.5491,-0.5516,-0.5677,-0.5677,-0.5677,-0.5591,-0.5585,-0.5579,0,0,0,0,0,-0.4685,-0.4711,-0.4745,-0.4771,-0.4932,-0.5026,-0.5047,-0.5132,-0.5151,-0.5169,-0.5248,-0.53,-0.5476,-0.547,-0.5494,-0.5504,-0.5677,-0.5677,-0.5677,-0.5594,-0.5586,-0.5579,0,0,0,0,0,0,-0.4582,-0.4729,-0.4768,-0.4836,-0.4917,-0.5045,-0.507,-0.5121,-0.5199,-0.5204,-0.5307,-0.5333,-0.5399,-0.546,-0.545,-0.5553,-0.5582,-0.5587,-0.5511,-0.5504,-0.5499,-0.5482,-0.5522,0,0,0,0,0,-0.4567,-0.4631,-0.4756,-0.4804,-0.4843,-0.4949,-0.4993,-0.5052,-0.514,-0.5175,-0.526,-0.5343,-0.5418,-0.5465,-0.554,-0.5601,-0.5629,-0.562,-0.5614,-0.5608,-0.5611,-0.5648,-0.5645,-0.5675,-0.5675,-0.5675,0,0,-0.4537,-0.4625,-0.4659,-0.4785,-0.4855,-0.4919,-0.4977,-0.5042,-0.5091,-0.5186,-0.5262,-0.5327,-0.5427,-0.5496,-0.553,-0.5548,-0.5609,-0.5608,-0.5602,-0.5608,-0.5647,-0.5644,-0.5642,-0.5675,-0.5675,-0.5675,0,0,-0.4514,-0.4587,-0.4635,-0.4704,-0.481,-0.4881,-0.4892,-0.5012,-0.5059,-0.5137,-0.521,-0.527,-0.5395,-0.5464,-0.5516,-0.5521,-0.5572,-0.5542,-0.5511,-0.5546,-0.5544,-0.5542,-0.5544,-0.5544,-0.5545,-0.5544,-0.5544,0,-0.4463,-0.4562,-0.4653,-0.4715,-0.4768,-0.4857,-0.4907,-0.497,-0.5094,-0.5129,-0.5148,-0.5308,-0.5382,-0.5468,-0.5469,-0.5508,-0.5525,-0.5528,-0.5537,-0.5536,-0.5536,-0.5539,-0.5539,-0.554,-0.5541,-0.5541,-0.5542,0,-0.4494,-0.4562,-0.4588,-0.4706,-0.4763,-0.4818,-0.4918,-0.4965,-0.5019,-0.5088,-0.5167,-0.5259,-0.5355,-0.538,-0.5433,-0.5474,-0.5482,-0.5517,-0.5549,-0.5527,-0.5532,-0.5534,-0.5534,-0.5536,-0.5537,-0.5538,0,0,-0.4411,-0.458,-0.4588,-0.4643,-0.4766,-0.4821,-0.488,-0.4974,-0.5012,-0.5095,-0.5148,-0.5253,-0.5287,-0.5345,-0.5408,-0.5438,-0.5437,-0.5471,-0.5475,-0.5461,-0.5488,-0.5459,-0.5459,-0.5472,-0.5473,-0.5473,-0.5479,0,-0.4406,-0.4516,-0.4601,-0.4679,-0.4743,-0.483,-0.4882,-0.4963,-0.503,-0.5094,-0.5168,-0.5241,-0.528,-0.5316,-0.5351,-0.5429,-0.5443,-0.543,-0.5522,-0.5524,-0.5493,-0.5462,-0.5432,-0.5433,-0.5481,-0.5482,-0.5482,0,-0.4414,-0.4494,-0.4579,-0.4697,-0.4727,-0.4772,-0.4865,-0.4926,-0.5021,-0.5067,-0.5132,-0.5197,-0.5265,-0.529,-0.5385,-0.5374,-0.5417,-0.5462,-0.5464,-0.5475,-0.5501,-0.5472,-0.5436,-0.5435,-0.5486,-0.5485,-0.5485,0,-0.4344,-0.4473,-0.4541,-0.4586,-0.4725,-0.4755,-0.4814,-0.491,-0.4961,-0.5043,-0.5077,-0.5166,-0.5214,-0.5281,-0.5368,-0.5379,-0.5454,-0.5487,-0.5494,-0.5492,-0.5505,-0.5503,-0.5475,-0.5533,-0.5533,-0.5533,-0.5533,0,-0.4328,-0.4377,-0.4512,-0.4553,-0.4611,-0.4708,-0.4762,-0.4829,-0.4914,-0.497,-0.5051,-0.5102,-0.5214,-0.528,-0.5348,-0.5416,-0.5438,-0.5477,-0.5495,-0.547,-0.5464,-0.5498,-0.55,-0.5534,-0.5534,-0.5534,-0.5534,0,-0.4259,-0.4352,-0.4431,-0.4557,-0.459,-0.4626,-0.4735,-0.4779,-0.485,-0.4921,-0.4943,-0.5055,-0.5136,-0.523,-0.5342,-0.5388,-0.5451,-0.5477,-0.5418,-0.5428,-0.543,-0.5428,-0.5422,-0.5427,-0.5482,-0.5481,-0.548,0,-0.4243,-0.4282,-0.4413,-0.4456,-0.4513,-0.4583,-0.4636,-0.4734,-0.4786,-0.4898,-0.4928,-0.5016,-0.509,-0.5216,-0.5308,-0.5394,-0.5423,-0.5415,-0.5436,-0.541,-0.5422,-0.5418,-0.5423,-0.5408,-0.5407,-0.5406,-0.5405,0,-0.4204,-0.4248,-0.4321,-0.4411,-0.4472,-0.4547,-0.4626,-0.4657,-0.4771,-0.4826,-0.491,-0.4968,-0.5083,-0.5168,-0.5266,-0.5328,-0.5386,-0.5398,-0.5405,-0.5379,-0.5343,-0.5362,-0.5401,-0.5398,-0.5398,-0.5399,-0.5399,-0.54,-0.416,-0.42,-0.4298,-0.4377,-0.4447,-0.4519,-0.4566,-0.4644,-0.4716,-0.4817,-0.4871,-0.4954,-0.505,-0.5187,-0.5247,-0.5314,-0.5334,-0.5343,-0.5345,-0.5345,-0.5338,-0.5333,-0.5333,-0.5333,-0.5333,-0.5334,-0.5334,0,-0.4125,-0.4193,-0.4265,-0.4373,-0.4435,-0.4485,-0.4575,-0.4624,-0.4696,-0.478,-0.4853,-0.495,-0.5034,-0.5132,-0.5223,-0.5257,-0.5286,-0.5278,-0.5276,-0.5289,-0.5316,-0.5301,-0.5253,-0.5253,-0.5253,-0.5253,-0.5253,-0.5253,-0.4114,-0.4183,-0.4239,-0.4344,-0.4412,-0.4494,-0.4541,-0.4608,-0.4676,-0.4781,-0.4851,-0.4915,-0.5006,-0.5104,-0.5184,-0.5211,-0.524,-0.5224,-0.5258,-0.528,-0.5287,-0.5294,-0.5281,-0.5229,-0.5229,-0.5227,-0.5227,-0.5226]}]]